User: anonymous   Login
Location: Oshawa
(43.9000°N, 78.8670°W)
Time: 07:06:57
(UTC-04:00)
Language:

Hubble Space Telescope - Orbit

View from above orbital plane
View from above orbital plane
View from above satellite
View from above satellite

Ground track
Ground track

The orbit data is extracted from the following two-line orbital elements,

1 20580U 90037B   17149.74582176 +.00000513 +00000-0 +20653-4 0  9995
2 20580 028.4689 129.3752 0002611 339.9100 027.2233 15.08770939287418
Epoch (UTC): 29 May 2017 17:53:59
Eccentricity: 0.0002611
inclination: 28.4689°
perigee height: 538 km
apogee height: 542 km
right ascension of ascending node: 129.3752°
argument of perigee: 339.9100°
revolutions per day: 15.08770939
mean anomaly at epoch: 27.2233°
orbit number at epoch: 28741

The dashed part of the orbit path shows where the satellite is in the earth's shadow,  

DLR